GFSWCAN_500_spd_159.txt.gz
Wind_Speed
41 38 39 42 45 45 46 48 49 48 49 50 47 45 45 43 42 42 41 40 39 36 33 33 33 32 32 28 29 32 30 31 36 38 39 37 32 34 35 44 38 45 45 44 40 38 32 19 33 32 24 27 25 23
41 41 43 47 49 51 53 53 51 50 44 43 43 43 42 41 42 39 39 37 34 32 30 31 30 27 27 27 28 28 29 31 29 32 38 41 43 38 38 40 41 38 45 42 40 37 32 25 33 32 24 27 25 23
43 45 48 50 52 53 52 50 48 43 42 42 42 40 41 40 39 36 33 31 28 26 29 28 25 25 26 26 26 25 28 31 32 31 33 37 40 40 41 36 39 45 47 44 42 39 37 42 34 32 30 26 24 26
50 52 52 53 52 50 48 44 41 40 40 40 40 40 39 37 32 28 26 27 26 24 22 26 25 24 23 23 25 26 28 32 30 28 32 37 39 44 42 42 49 34 49 52 41 46 35 39 36 39 33 26 26 26
52 54 53 51 48 43 39 38 37 38 38 39 36 35 33 29 26 24 22 21 22 21 22 24 23 20 21 25 26 27 31 32 32 33 31 36 41 44 49 56 32 63 29 51 43 44 38 34 38 39 32 28 28 25
52 49 45 41 38 37 37 36 36 36 34 32 31 28 25 23 22 22 21 19 20 21 21 24 19 19 21 20 23 28 27 32 32 33 32 32 35 39 43 43 46 43 49 46 41 43 41 42 44 35 30 30 27 23
47 43 40 37 37 35 35 34 32 29 28 27 25 24 22 21 21 21 20 20 19 19 20 19 17 17 17 18 17 16 18 21 25 31 32 33 37 37 38 39 38 42 44 46 43 40 43 42 46 34 29 32 27 20
40 39 38 37 34 32 32 27 25 25 25 24 23 21 20 21 21 21 20 20 19 20 17 17 17 16 11 9 10 13 11 13 16 21 27 28 32 34 42 22 34 40 34 46 40 47 52 51 48 38 21 31 28 21
36 36 35 32 31 30 25 22 21 21 21 22 21 21 21 20 19 18 18 18 17 15 14 16 15 11 11 6 4 12 7 5 9 11 18 27 27 29 26 25 28 38 37 44 47 51 47 57 45 34 19 20 24 23
34 31 28 27 28 24 22 20 19 21 21 21 20 20 19 18 17 16 16 16 13 14 12 9 9 13 10 4 3 5 6 3 4 11 16 20 21 27 23 23 30 36 31 35 40 44 44 48 39 30 19 20 22 23
29 26 25 23 21 19 19 20 20 19 21 22 20 19 18 17 15 14 16 13 11 8 7 6 11 15 10 6 2 6 10 5 2 5 8 10 18 21 24 18 18 29 37 36 37 38 35 31 32 31 21 24 27 21
26 25 23 18 16 17 20 20 20 20 21 23 20 18 17 15 13 14 12 7 2 2 0 5 10 13 9 8 7 2 6 10 5 5 9 9 12 18 21 19 21 34 26 29 35 38 36 32 31 30 26 23 26 21
25 23 20 15 14 15 16 19 22 22 23 24 20 16 15 13 11 10 5 3 6 4 9 9 11 10 7 5 5 4 1 5 6 3 10 11 10 16 17 19 21 33 28 28 25 29 32 29 29 28 24 21 27 21
22 20 16 14 14 15 20 22 23 22 22 21 18 15 13 12 9 4 6 9 11 10 2 6 9 11 4 2 3 3 5 5 5 6 8 6 8 13 23 17 24 23 32 26 23 24 26 29 27 29 27 22 29 32
20 16 14 13 16 19 20 22 21 20 18 17 16 14 12 11 9 6 13 13 12 4 7 10 11 9 6 4 1 2 7 7 6 6 8 7 7 9 18 24 23 25 32 35 32 32 33 33 33 33 28 28 25 26
15 14 14 16 17 18 19 21 19 17 16 15 15 14 12 10 8 7 19 21 11 8 8 9 7 6 4 4 3 6 7 9 6 5 2 5 2 4 7 18 29 31 29 31 35 36 32 31 29 29 28 29 34 29
15 16 16 18 18 17 20 20 18 17 17 16 15 13 13 11 10 10 21 20 15 12 11 6 8 9 9 8 7 8 7 1 4 7 7 2 4 2 5 11 19 30 30 28 27 27 25 24 26 24 22 23 25 27
15 16 17 17 18 19 21 18 16 17 17 15 15 13 13 11 10 10 16 25 19 14 13 7 11 11 10 11 7 10 5 0 3 10 6 9 11 2 3 7 13 23 28 29 26 23 25 25 22 22 24 22 22 28
18 18 19 17 19 22 19 16 16 16 15 15 14 13 11 11 10 11 17 17 17 20 13 15 12 9 4 6 7 11 7 6 3 4 3 5 7 4 3 11 16 17 20 23 32 28 27 25 23 22 22 23 28 28
19 20 19 19 21 20 16 15 15 14 14 13 12 10 9 11 11 12 15 20 19 18 18 15 18 14 11 9 7 5 5 8 7 4 2 1 3 4 4 5 10 17 20 22 24 28 29 28 25 27 26 21 21 18
19 20 21 20 21 18 15 14 14 13 13 12 9 7 9 12 12 12 14 19 20 18 19 19 16 12 10 10 8 9 8 4 6 8 6 6 6 6 4 3 6 16 14 20 21 22 26 27 24 24 18 22 21 10
22 21 20 19 19 16 13 13 13 12 11 9 8 7 9 12 14 15 15 19 24 20 17 19 14 10 8 7 4 5 7 6 4 8 10 8 6 5 6 6 6 5 21 22 21 22 22 21 21 18 13 13 17 21
23 20 19 19 17 15 14 13 12 11 9 8 8 8 10 13 12 12 15 18 21 20 21 20 14 11 9 8 9 10 10 10 7 7 10 10 8 5 4 4 4 3 5 7 12 23 24 13 17 17 14 19 16 18
21 20 20 18 17 15 14 12 11 9 8 9 9 8 10 13 9 10 14 18 18 19 19 20 20 16 14 12 6 4 7 9 10 8 9 10 10 10 9 10 9 8 8 8 10 13 17 21 26 24 21 22 25 25
22 22 20 19 18 15 14 11 9 11 11 8 7 11 15 11 11 12 12 14 19 18 19 20 18 18 19 16 13 10 8 8 8 8 9 11 12 13 15 15 15 15 15 15 14 14 17 19 19 19 19 19 21 25
23 21 20 20 18 15 14 12 15 13 10 9 12 14 11 13 16 16 15 17 17 15 14 15 18 19 17 17 16 15 15 15 15 15 14 15 17 18 16 16 15 14 12 12 12 12 12 13 14 17 20 21 25 24
22 22 21 20 18 16 13 19 16 12 9 12 15 10 12 17 20 14 15 13 10 10 10 11 12 13 15 15 16 17 19 21 21 21 15 20 19 17 16 15 16 12 13 14 13 10 11 10 11 12 16 17 14 15
23 22 21 21 19 16 24 19 14 14 15 13 12 12 16 17 15 12 13 11 10 8 8 8 8 8 9 9 8 9 8 8 9 10 11 10 8 8 9 11 12 12 14 14 13 12 10 13 14 21 21 19 17 15
22 21 22 22 20 26 22 18 16 17 16 14 14 19 19 19 11 11 10 10 11 11 10 8 7 7 8 8 8 9 9 8 7 6 8 6 6 5 4 6 7 7 6 3 6 7 11 12 9 9 9 4 6 6
23 24 22 24 28 25 22 21 20 19 17 17 17 17 17 17 17 17 16 14 13 12 10 10 9 9 8 9 11 11 9 7 7 7 7 5 1 3 9 5 2 3 4 17 13 10 9 6 4 4 4 4 6 7
24 26 29 29 27 22 17 15 16 23 29 27 24 21 23 20 18 18 16 15 13 12 11 12 11 10 10 10 10 10 8 9 8 7 4 6 8 8 8 5 3 6 7 7 6 4 2 2 4 6 7 10 11 12
25 24 21 17 16 18 24 31 34 27 24 23 21 20 16 16 18 17 15 12 12 13 12 13 13 13 13 13 12 10 9 9 9 10 11 8 7 6 4 3 3 2 1 1 2 4 5 5 7 9 12 14 17 19
17 20 25 26 26 25 23 29 29 27 23 19 14 15 16 16 15 14 14 12 10 11 12 13 14 14 14 13 13 11 10 9 9 8 6 4 3 2 2 3 3 3 4 4 6 8 10 11 13 15 16 18 19 21

GFSWCAN_500_spd_162.txt.gz
Wind_Speed
38 41 41 40 41 41 43 47 48 50 50 50 48 45 41 41 41 42 43 44 43 41 40 40 37 35 35 35 34 36 35 37 38 38 38 38 39 37 34 35 35 40 42 46 46 44 45 31 37 29 36 21 23 25
43 44 44 46 45 44 46 48 50 52 51 49 44 41 41 42 42 44 44 43 40 38 34 34 33 31 31 31 32 32 33 32 33 32 35 39 40 42 42 41 38 40 52 50 44 44 36 39 31 40 31 25 37 38
43 43 45 46 47 49 50 51 53 51 47 44 42 41 40 40 40 39 37 35 33 30 28 28 27 27 28 28 30 29 31 31 35 35 33 34 34 34 35 42 41 52 43 35 46 41 37 39 45 39 26 28 34 32
43 46 46 48 49 51 52 50 47 44 44 42 40 38 37 35 34 33 30 28 27 26 23 28 24 21 22 24 27 27 27 31 32 33 33 34 36 37 39 42 47 36 54 48 46 44 47 44 46 42 43 48 28 31
48 48 49 50 50 50 46 43 43 42 40 39 38 35 32 30 28 28 25 24 22 21 18 21 19 21 21 22 22 25 27 28 31 30 31 33 38 39 41 46 49 46 49 50 59 60 55 48 46 40 30 29 32 28
47 49 49 47 43 40 40 41 41 37 37 35 31 30 28 27 26 24 23 21 21 20 17 20 19 19 20 19 19 22 25 28 31 34 34 35 36 39 39 44 39 42 50 59 45 54 42 47 51 43 49 38 37 27
45 43 41 39 37 38 39 38 34 35 31 28 27 26 25 25 25 24 22 22 20 20 19 18 18 16 13 13 15 18 22 23 27 30 31 34 38 39 39 37 32 39 46 59 49 46 49 30 46 32 31 31 20 27
40 38 35 34 37 36 35 31 31 28 26 24 23 23 23 24 25 23 22 21 19 18 18 17 17 14 9 9 10 12 12 15 16 15 21 30 35 36 37 27 29 38 38 41 35 32 20 31 36 31 38 30 25 29
36 34 33 35 34 32 29 29 26 24 23 23 21 22 23 24 24 22 20 18 17 18 15 13 14 15 12 9 5 10 11 10 9 11 16 23 29 35 23 23 27 35 34 30 32 30 33 31 41 46 44 26 21 22
33 33 32 32 29 26 27 24 21 22 23 21 21 22 24 24 22 21 18 16 17 15 13 13 9 9 13 10 3 5 7 9 8 10 11 6 8 13 18 21 29 18 36 34 37 40 45 50 28 43 37 30 25 22
31 33 31 27 26 25 22 19 21 22 21 22 22 24 26 23 21 19 16 16 13 11 9 7 5 7 12 8 3 4 6 10 12 12 9 4 8 12 15 19 20 19 26 36 47 25 50 46 41 32 29 20 22 25
32 30 27 25 24 22 18 18 18 18 21 23 23 24 25 21 18 16 15 13 6 1 4 3 4 9 9 7 3 4 6 11 8 7 5 3 1 7 15 17 17 17 22 31 32 31 37 41 32 30 32 28 21 21
29 27 25 24 21 19 17 17 17 22 23 24 23 21 20 19 15 13 13 7 5 3 5 5 7 12 7 3 1 1 6 6 2 4 4 6 5 17 14 16 17 18 21 31 30 31 30 24 31 41 34 24 27 20
26 25 24 22 19 17 16 16 20 21 23 22 20 17 16 16 13 9 6 3 6 4 4 5 12 10 5 1 5 9 2 4 2 1 6 7 5 10 13 14 13 21 27 31 31 30 29 32 27 22 27 35 35 34
24 24 23 20 17 15 17 19 19 21 22 20 18 16 16 14 12 9 7 11 8 4 1 9 13 7 1 2 6 4 2 6 11 12 8 6 5 5 9 13 16 22 22 23 26 26 27 27 29 30 31 25 21 23
21 21 19 16 14 16 18 19 18 21 21 18 17 17 17 14 11 11 9 17 13 6 7 14 8 1 1 1 4 4 2 7 9 9 6 5 3 5 4 11 16 11 17 23 22 25 31 31 31 29 32 26 25 25
18 18 16 16 16 18 19 18 19 21 19 17 16 16 16 13 11 11 10 17 17 12 12 7 6 5 7 3 3 3 5 6 3 2 2 5 6 5 4 10 21 26 24 25 27 29 29 29 26 21 27 29 32 30
18 18 17 16 16 17 18 18 21 20 17 16 15 15 16 12 10 11 11 19 23 15 10 8 5 4 3 5 4 4 3 8 5 4 4 5 3 7 6 3 14 24 28 29 28 29 29 26 25 25 28 29 28 24
20 19 18 17 18 18 18 20 20 16 15 15 14 13 14 10 10 12 11 17 24 17 14 12 14 9 8 8 6 7 5 4 4 5 2 2 2 2 5 3 3 19 26 26 23 22 28 19 19 23 22 20 20 21
18 22 21 18 18 17 19 21 18 14 14 14 13 13 10 9 10 12 10 14 19 21 15 18 14 15 15 10 15 7 8 4 19 15 5 8 0 3 3 3 6 10 16 25 26 24 21 24 24 22 20 22 18 21
21 18 16 16 17 18 18 21 16 14 13 12 12 11 9 8 11 11 12 17 18 20 18 15 14 13 8 5 1 2 2 3 4 2 4 2 3 3 3 2 2 6 12 15 20 25 29 29 26 28 27 24 24 22
21 19 18 18 18 17 19 20 14 13 12 11 11 9 9 8 11 11 11 17 18 17 15 17 14 10 8 6 5 4 5 4 3 2 3 1 3 3 3 5 3 2 4 10 19 24 24 25 25 26 29 13 22 20
24 22 21 19 18 18 19 16 13 13 11 11 10 9 8 8 8 10 10 16 20 16 15 16 13 11 8 6 4 4 5 6 6 7 8 5 3 4 2 0 2 3 4 5 13 14 18 23 26 25 22 20 20 9
25 23 22 20 18 18 17 14 13 11 10 10 8 8 7 11 11 8 9 14 20 22 18 20 18 13 10 9 5 2 4 6 8 7 7 9 11 9 6 6 6 4 5 3 3 8 14 27 26 22 22 18 13 11
25 25 22 19 19 19 15 14 13 11 10 10 7 9 16 15 10 9 9 12 15 19 19 19 19 17 17 16 13 8 5 6 7 8 7 8 9 6 11 12 12 9 9 3 10 7 9 12 16 23 24 26 23 23
24 22 21 21 21 17 15 14 12 11 11 9 10 18 16 14 15 13 10 9 14 17 18 19 20 19 16 16 14 12 10 10 9 10 10 11 14 14 14 13 15 12 11 12 3 5 10 13 16 19 20 22 22 23
24 24 23 22 20 18 16 14 12 13 11 9 16 13 15 17 19 15 9 10 14 15 14 15 17 17 16 16 16 15 13 14 16 19 17 19 20 17 16 16 16 13 11 13 14 15 14 12 11 12 15 15 17 20
26 24 22 21 19 18 17 14 17 13 9 15 13 11 14 21 15 10 11 11 10 10 10 10 11 11 11 11 11 11 12 13 13 13 12 11 11 11 11 11 12 12 12 12 13 14 14 15 15 18 17 16 17 18
25 24 23 22 21 18 17 21 15 14 12 11 10 13 19 16 11 11 11 9 9 9 8 6 6 7 7 7 7 8 6 4 4 3 3 4 5 6 5 6 6 7 8 8 5 6 8 7 10 9 10 6 4 6
24 24 23 23 20 21 23 17 16 16 15 14 13 16 18 14 14 12 11 10 9 8 7 6 5 6 6 8 6 6 6 5 2 2 3 1 3 4 4 2 2 2 4 4 8 11 9 3 4 5 3 3 5 6
21 22 21 21 24 23 21 20 17 17 19 19 18 18 17 17 15 13 5 11 9 8 9 8 6 6 6 8 9 8 6 6 6 3 1 0 2 4 5 2 2 2 3 6 5 5 5 6 6 5 4 5 12 12
21 21 25 27 23 18 14 20 24 29 23 21 22 22 20 20 15 14 12 11 9 9 9 9 9 10 10 9 7 8 7 5 3 2 5 4 3 2 3 2 2 3 3 3 3 3 3 5 7 8 9 11 13 14
25 23 21 19 26 35 35 32 28 24 22 20 17 15 17 17 16 15 14 11 8 9 11 11 10 11 11 11 10 9 8 8 8 7 4 2 2 2 3 3 3 2 3 5 5 6 8 8 9 12 14 15 15 17

GFSWCAN_500_spd_165.txt.gz
Wind_Speed
34 35 36 37 40 42 43 43 45 46 48 49 48 49 48 49 47 44 44 43 43 42 40 42 41 41 38 38 38 35 34 35 36 37 40 41 42 44 47 45 40 40 47 54 53 51 48 40 37 41 43 37 30 34
37 39 38 39 41 43 46 46 47 48 48 50 47 45 45 44 44 43 42 41 39 37 36 36 36 35 33 32 32 30 30 31 32 33 36 36 36 38 41 47 41 42 48 50 56 56 50 48 41 42 43 37 46 39
37 35 39 43 44 44 43 46 48 48 44 42 42 43 42 42 42 40 37 36 33 31 29 31 31 28 25 26 27 24 26 28 36 36 36 36 34 33 35 38 40 45 45 51 44 51 38 50 45 42 39 43 29 35
36 38 41 43 44 46 46 44 42 39 38 39 41 39 40 39 36 35 32 30 29 28 24 24 22 21 23 23 23 21 23 27 30 32 29 31 32 31 33 35 38 39 44 50 52 42 48 50 53 52 47 46 39 39
37 40 44 46 44 43 43 42 39 38 38 38 36 37 36 34 32 30 29 28 28 25 21 23 20 19 18 17 19 19 20 23 26 29 29 29 30 32 36 36 34 36 43 49 49 40 57 60 27 41 47 48 43 41
42 41 44 44 42 43 40 37 38 37 36 32 33 32 30 29 27 26 27 27 27 25 20 21 18 18 16 17 18 18 19 21 23 25 28 31 31 33 33 32 33 40 39 40 41 52 55 54 36 46 46 44 36 30
43 44 42 41 42 39 37 35 36 34 30 31 30 27 27 26 25 26 27 26 24 22 19 18 18 16 15 13 12 13 14 16 20 23 26 29 32 38 39 35 30 35 35 34 44 51 49 47 46 49 49 38 34 34
40 38 41 41 38 36 34 35 32 29 29 28 26 25 23 24 25 26 26 25 23 20 17 17 17 13 9 8 10 11 12 13 16 18 22 27 31 37 39 32 29 27 29 34 36 42 45 54 59 55 55 55 49 22
37 40 40 38 34 32 33 32 28 28 26 24 25 24 23 23 26 25 24 22 20 18 19 15 12 12 11 11 11 12 11 9 9 9 12 14 15 16 13 18 25 28 25 26 29 40 38 49 59 64 62 60 60 51
39 38 35 34 33 33 31 28 27 25 22 23 22 22 24 25 27 27 22 20 18 18 14 12 12 10 7 11 9 9 8 10 11 12 13 9 11 14 18 21 21 21 21 23 28 30 40 32 31 60 39 53 24 17
36 34 34 33 32 31 28 27 24 21 20 20 21 23 25 25 25 23 19 17 16 10 5 8 8 7 2 7 6 8 9 11 12 11 9 4 9 8 15 21 20 21 20 25 27 24 35 39 25 34 48 44 28 23
32 32 32 32 31 28 27 23 21 19 19 21 23 23 25 25 22 20 17 16 11 3 2 5 5 4 4 5 6 6 8 12 11 6 7 3 2 4 9 15 19 20 20 33 32 38 38 36 26 30 18 27 27 22
31 31 31 30 28 26 24 22 19 18 18 22 23 23 23 21 19 17 14 13 5 5 8 8 6 5 5 2 3 7 11 10 12 11 15 17 10 7 13 15 18 19 26 33 34 32 25 34 47 26 22 26 30 22
29 27 28 27 25 22 21 19 17 18 20 21 22 23 21 19 18 14 11 11 6 6 3 5 4 7 3 1 8 12 5 13 15 17 17 16 14 8 13 20 23 20 19 23 26 29 29 16 24 28 35 37 33 23
25 26 24 23 21 20 18 16 16 18 19 20 22 22 18 17 16 12 10 8 7 5 4 2 8 5 3 7 11 11 9 19 17 17 18 14 10 7 7 8 13 15 20 23 27 31 27 27 26 28 32 20 22 20
22 21 19 18 16 15 14 15 17 18 19 21 23 21 17 16 15 12 9 7 10 10 4 8 7 5 5 4 5 10 11 15 16 11 13 12 11 10 7 12 10 16 26 28 30 29 28 31 33 35 30 30 26 22
19 20 16 15 15 13 14 15 16 18 19 23 21 18 17 15 14 12 10 9 12 12 7 8 6 4 3 0 6 5 7 8 6 8 11 15 17 13 6 3 13 19 20 26 29 33 31 31 29 21 18 23 26 19
17 16 16 16 15 15 15 15 15 16 20 19 18 16 16 15 13 11 9 7 12 14 11 10 6 5 4 3 2 2 6 9 5 8 9 6 10 14 12 4 10 11 22 25 23 24 30 34 27 23 26 22 19 22
17 16 17 17 16 15 16 15 15 16 19 17 17 16 14 14 11 9 9 10 11 19 13 13 9 8 5 3 5 4 3 5 4 11 7 4 5 4 5 7 2 14 21 19 21 21 27 25 23 24 24 23 19 20
18 16 16 16 18 19 17 16 16 18 19 17 16 14 13 13 9 9 9 9 13 19 17 13 13 8 7 13 8 6 3 14 15 8 14 11 14 9 9 7 10 6 16 22 18 24 27 27 22 27 23 25 25 23
21 22 21 17 15 15 14 14 14 17 17 16 15 13 13 11 8 8 8 8 11 18 16 15 17 16 12 3 5 5 5 6 6 5 7 10 12 9 9 9 9 8 8 13 18 21 23 13 22 14 18 21 23 19
21 20 19 18 15 15 16 14 16 17 14 14 13 12 11 7 7 7 6 8 14 18 16 15 11 8 4 2 3 4 4 5 4 6 9 4 6 8 8 9 10 7 4 9 15 21 23 23 13 11 12 17 22 22
25 23 21 18 16 16 15 14 17 16 13 12 11 10 7 6 6 6 5 10 14 17 18 15 14 11 6 2 2 4 4 3 1 3 2 3 2 3 4 5 6 5 3 7 14 24 24 21 19 18 22 24 24 28
22 22 21 20 18 17 16 17 17 14 12 11 11 7 5 7 8 6 5 10 14 14 13 16 13 9 7 4 2 2 4 3 5 5 6 7 5 2 3 7 4 3 1 1 4 10 15 17 16 17 16 18 21 23
25 24 21 20 20 18 17 18 16 13 12 10 8 7 9 14 12 10 10 13 17 19 15 14 15 12 11 8 7 8 8 6 5 7 7 2 3 5 5 7 7 8 8 7 12 15 15 15 14 19 20 19 18 17
24 24 22 20 19 18 17 17 15 14 11 9 8 12 15 16 14 12 9 12 15 18 18 14 15 15 13 10 10 10 11 10 10 8 4 4 5 8 12 14 13 16 11 11 13 9 2 3 7 11 14 16 16 19
26 24 23 21 19 17 17 15 13 12 10 10 11 17 19 16 16 11 11 9 12 15 17 16 15 15 15 14 14 12 12 14 11 11 10 14 17 19 21 21 18 14 11 12 10 8 6 7 10 11 13 15 19 20
27 24 21 20 19 18 15 14 12 10 10 8 16 17 16 15 16 9 7 8 10 12 12 11 11 10 10 11 11 11 13 13 10 9 9 10 9 9 11 11 12 11 11 12 11 9 9 10 10 11 13 16 17 21
25 25 24 23 20 17 16 14 12 13 10 15 16 13 13 19 11 9 10 9 8 8 8 7 7 7 8 7 7 6 5 5 4 1 2 3 4 3 4 2 1 3 5 5 6 4 7 6 5 6 8 8 7 5
25 25 25 23 21 20 18 17 16 16 16 14 13 16 16 12 12 11 10 9 9 8 6 5 5 4 4 6 7 10 5 2 2 3 3 2 5 5 2 4 3 4 1 1 2 4 5 5 2 4 6 7 5 8
24 24 23 21 19 17 18 20 19 17 16 18 22 19 15 11 18 13 10 10 9 8 8 6 6 9 5 3 6 6 5 5 4 1 4 3 4 7 6 6 6 5 3 2 2 2 4 4 5 5 4 7 7 13
25 25 24 23 25 25 19 14 16 23 22 28 25 18 15 10 8 10 13 13 11 10 11 9 8 10 10 7 4 6 6 4 3 4 2 2 3 4 3 3 4 5 2 2 2 2 4 6 9 7 8 10 12 13
27 28 28 25 21 20 24 28 27 26 25 20 13 7 12 15 13 12 14 15 10 7 15 11 12 9 6 6 7 6 6 6 5 3 1 4 7 7 7 7 10 6 2 2 3 8 8 10 11 12 13 13 12 14

GFSWCAN_500_spd_168.txt.gz
Wind_Speed
31 33 32 32 34 31 32 35 38 39 42 43 43 43 44 41 41 42 42 40 39 37 37 39 38 37 39 38 37 37 39 43 42 44 44 42 44 47 49 49 49 47 48 52 56 59 55 48 39 43 39 37 30 39
33 33 33 32 31 32 32 38 40 42 43 43 43 42 41 41 41 40 40 37 35 33 33 34 33 33 31 32 33 31 30 32 37 36 39 37 36 39 42 44 44 46 46 50 57 62 57 54 49 49 39 23 25 37
36 34 34 34 33 35 39 39 41 43 46 43 42 42 41 40 37 37 36 34 33 31 30 31 29 27 26 26 27 24 25 26 30 34 34 35 35 34 33 37 39 41 42 45 49 56 57 54 50 48 43 40 35 34
36 37 38 37 36 39 40 41 41 45 43 41 41 40 38 34 34 33 32 32 31 29 27 27 25 27 23 21 21 18 22 26 26 30 30 33 32 31 32 35 37 39 39 40 42 50 54 54 53 54 49 48 44 43
35 33 33 35 37 39 42 41 43 42 41 40 39 36 33 33 30 30 29 30 29 28 24 26 23 21 21 19 19 18 17 21 22 25 24 25 27 31 31 34 34 33 36 36 38 43 47 51 52 55 51 53 50 48
36 34 34 36 39 40 39 41 43 41 39 37 35 32 31 29 28 27 27 29 29 27 24 24 21 18 17 17 17 17 19 20 22 23 23 23 24 30 32 33 31 34 34 36 39 39 44 53 50 53 41 50 49 55
36 37 40 37 34 35 38 41 40 36 34 34 30 30 28 27 26 25 26 28 26 25 22 20 18 18 17 16 15 12 14 13 14 17 18 22 24 28 29 28 28 29 32 36 35 37 44 54 58 42 47 51 52 57
41 39 31 34 34 36 40 39 36 33 33 30 29 27 25 24 25 26 26 28 25 23 19 18 17 15 11 10 10 12 11 11 12 13 19 21 21 28 26 23 25 31 32 29 34 40 36 53 54 60 45 53 44 48
36 33 35 35 36 38 37 36 32 31 28 28 25 23 22 23 23 25 25 24 23 21 20 16 13 11 12 12 13 13 11 12 11 12 12 11 16 19 22 23 28 36 40 35 34 36 41 45 52 61 50 52 56 47
37 37 36 35 35 36 34 32 30 28 27 24 22 20 21 25 25 25 23 21 19 18 17 13 7 11 9 8 7 4 7 8 10 15 15 16 18 22 19 21 22 28 35 34 30 33 37 41 43 42 49 48 28 32
33 32 34 35 35 30 29 27 27 26 23 21 20 19 22 24 24 22 20 18 17 16 13 11 9 7 5 3 3 6 8 9 10 13 12 11 14 9 9 18 23 25 26 28 26 32 35 34 33 33 42 37 34 36
32 34 35 32 30 28 26 25 24 22 20 17 17 20 22 23 22 21 18 16 15 12 10 11 10 7 1 2 5 8 10 9 14 14 14 13 10 10 10 13 21 22 25 27 26 29 27 24 27 31 33 41 48 47
32 31 30 27 25 24 23 23 21 20 17 15 17 19 21 22 21 19 18 15 14 11 6 8 7 2 3 4 7 11 7 16 21 21 24 23 22 5 9 11 18 23 24 25 27 26 23 21 31 35 27 34 37 34
27 26 25 22 23 23 20 19 19 17 13 14 17 19 20 22 19 17 17 13 11 6 4 6 2 5 3 6 11 14 16 23 23 22 25 16 15 6 8 11 14 18 19 21 31 25 25 27 22 34 24 19 32 44
24 24 21 21 20 17 18 18 15 12 12 15 17 18 20 20 16 16 16 11 8 4 3 0 5 4 2 5 7 13 17 21 22 17 14 16 15 12 2 13 12 10 13 16 24 21 20 14 24 30 28 27 43 41
23 22 20 19 16 16 14 13 10 11 13 16 17 20 19 16 15 14 14 10 8 8 5 6 8 4 2 4 11 10 8 10 12 12 17 24 20 14 9 13 14 15 18 21 26 23 21 15 10 20 33 26 29 33
18 18 17 15 14 13 12 11 11 11 13 13 17 19 17 15 14 14 14 9 9 10 6 11 8 4 1 3 6 9 11 8 10 11 8 18 23 18 17 11 7 15 20 25 28 31 25 17 13 13 15 14 12 18
18 16 13 13 12 12 13 12 10 12 12 13 17 17 16 15 14 13 13 9 8 11 11 12 8 4 3 2 3 6 10 9 11 14 15 13 16 15 12 12 7 13 21 28 25 26 23 20 22 18 15 13 11 12
14 13 13 12 12 12 13 12 12 13 13 14 18 18 17 14 13 14 11 8 7 14 13 14 8 4 2 2 3 3 6 1 15 12 23 13 13 17 18 12 15 9 14 13 17 22 22 23 20 19 17 18 19 19
13 13 14 13 12 11 13 14 14 14 14 15 18 17 16 13 12 13 9 9 7 14 15 14 10 7 5 5 5 2 7 6 14 17 15 15 17 17 13 8 10 9 12 14 18 18 20 24 24 25 23 22 19 16
15 15 14 15 17 15 12 11 12 12 14 16 18 16 14 10 12 9 6 7 7 17 19 17 14 10 7 9 8 7 8 5 7 10 10 12 14 12 14 8 9 9 7 8 8 16 20 15 15 17 17 17 18 19
18 18 16 14 13 14 12 11 12 13 13 15 15 14 11 11 9 6 7 7 9 18 19 16 15 12 10 9 3 4 5 5 5 7 9 9 10 10 6 6 6 7 5 7 11 11 11 15 10 15 22 25 27 26
22 25 23 21 17 15 14 12 11 11 13 14 14 11 9 8 6 6 6 7 11 18 16 16 14 10 11 6 3 6 6 3 2 3 5 6 5 3 5 2 5 5 6 2 8 9 10 12 16 18 14 11 14 20
25 22 17 16 17 17 16 15 13 13 15 14 12 9 9 7 8 9 8 11 16 16 18 16 14 13 9 8 5 4 6 7 5 2 4 5 3 3 4 5 6 8 7 7 3 2 7 9 10 7 8 8 13 14
23 20 16 13 14 17 17 15 14 14 15 13 10 10 9 9 11 11 12 11 15 18 18 18 17 13 10 7 7 4 3 2 7 6 2 2 1 5 6 5 6 6 6 6 11 10 7 6 7 12 14 15 17 16
23 22 18 16 17 16 17 16 14 15 13 9 10 10 11 14 15 14 15 16 15 17 18 19 17 14 9 3 2 3 4 3 5 5 5 5 8 8 9 8 10 11 12 13 10 6 5 1 4 6 6 7 10 12
25 20 18 16 16 17 16 15 14 13 9 10 9 11 15 18 15 13 10 15 15 18 17 15 13 9 9 11 13 10 9 6 6 9 11 12 14 16 15 15 17 15 12 11 11 10 8 6 5 8 10 9 11 12
27 23 20 18 17 16 14 14 14 12 11 9 11 14 18 17 14 8 9 12 13 16 16 16 15 12 10 10 10 10 5 6 8 7 7 7 7 7 5 5 8 9 9 8 8 7 6 6 7 7 8 9 10 12
27 25 22 21 19 15 12 12 11 11 10 9 12 16 16 11 13 9 9 12 14 14 13 12 11 10 8 6 4 3 3 3 3 2 3 2 6 6 5 4 4 4 2 2 4 4 2 2 2 2 2 3 3 5
30 27 22 19 16 14 13 12 11 10 10 13 15 13 13 16 11 11 11 11 11 10 10 9 8 7 6 5 6 7 4 4 2 3 0 4 6 2 4 3 3 4 4 3 4 1 2 2 1 1 2 5 6 4
29 26 21 15 15 13 14 13 13 16 18 16 17 17 13 14 12 12 12 13 12 11 9 7 6 7 8 8 8 7 6 5 4 1 3 6 6 6 4 3 5 7 6 4 2 3 2 0 2 2 3 6 9 13
25 23 21 20 20 19 18 20 17 21 22 20 14 19 16 14 15 13 13 13 12 10 9 9 11 13 10 8 9 9 8 6 5 5 4 6 7 7 7 6 6 7 6 2 1 2 3 5 7 6 7 10 13 16
30 29 27 25 23 22 19 21 26 23 24 20 10 12 13 13 14 14 14 11 10 15 11 10 10 8 9 10 9 7 6 6 5 4 3 5 7 7 6 6 7 8 8 5 3 3 4 11 11 7 5 9 11 14

GFSWCAN_500_spd_171.txt.gz
Wind_Speed
29 29 30 32 33 32 31 31 31 32 35 35 38 38 41 43 44 43 41 39 39 36 37 39 39 36 35 34 34 33 34 37 42 46 46 44 45 48 53 52 51 50 51 50 48 52 57 55 55 52 41 39 39 35
31 34 36 38 37 36 36 35 35 36 37 37 39 41 43 43 43 42 42 38 35 31 33 35 34 33 33 34 30 28 27 29 33 38 42 43 42 43 46 48 47 48 49 54 53 55 57 55 54 51 46 44 40 36
35 38 38 36 35 35 35 35 35 35 37 39 40 43 45 43 41 40 38 36 35 31 31 33 31 30 30 28 27 25 26 28 27 30 32 36 37 37 39 38 40 43 45 51 55 56 58 59 59 58 51 45 40 34
36 33 34 36 35 35 35 35 36 39 38 38 41 44 43 40 38 36 35 32 31 29 29 33 30 29 27 24 24 21 24 24 23 27 29 28 29 31 32 34 38 39 39 44 48 57 59 60 59 58 54 47 41 42
37 37 37 38 36 37 36 39 39 37 36 39 42 41 38 36 35 34 31 31 28 28 27 30 30 27 26 22 21 20 21 22 21 22 21 19 20 27 30 32 35 38 40 40 41 47 57 59 61 59 49 44 43 43
37 37 37 37 40 39 42 39 34 37 39 40 41 37 34 32 32 30 29 28 29 27 28 29 28 24 20 22 21 19 17 19 21 22 21 20 19 27 28 32 31 35 38 41 42 42 51 55 54 56 50 46 43 45
41 41 42 43 39 41 41 36 38 40 42 40 38 35 31 30 28 27 27 27 26 26 28 27 25 23 21 19 17 17 14 13 13 14 14 17 19 26 26 22 22 30 35 36 38 42 44 51 50 51 50 49 45 44
38 37 40 44 43 40 37 38 41 39 39 37 32 30 29 27 24 23 25 26 26 25 26 25 23 20 16 15 13 12 13 11 13 15 16 17 19 26 21 20 26 34 38 39 38 38 38 43 49 51 52 50 46 44
37 38 40 35 34 34 35 37 37 37 34 29 28 27 25 23 21 23 25 24 24 24 24 23 20 18 18 16 15 14 11 12 12 15 17 16 18 19 23 20 24 30 35 37 38 37 38 39 43 48 51 50 45 41
36 35 32 32 31 28 30 33 35 31 25 25 25 24 21 20 20 22 24 24 23 21 21 19 16 16 14 11 5 3 6 12 14 19 20 21 21 23 25 22 21 24 30 33 30 34 34 35 40 44 48 45 48 42
35 30 30 33 35 33 32 30 27 26 25 23 23 21 18 17 20 22 22 23 22 20 19 17 12 13 8 3 3 6 8 11 13 17 18 18 18 21 23 18 18 23 27 30 37 39 31 32 38 42 41 47 46 46
33 33 32 34 33 31 28 27 25 23 22 21 21 17 15 17 19 20 21 21 20 18 17 13 10 9 3 2 6 9 11 12 20 32 27 28 19 16 13 16 16 16 18 20 25 33 31 29 33 37 34 38 41 45
32 32 31 30 28 26 24 21 23 21 20 19 16 13 14 17 19 20 20 19 18 15 11 7 5 2 2 3 4 6 11 11 23 35 31 30 27 20 1 8 8 10 16 20 24 27 26 24 25 25 27 34 36 35
27 32 26 26 22 21 20 19 18 18 17 14 12 12 15 18 19 19 17 17 14 10 5 6 4 4 1 3 7 9 18 22 23 28 24 30 27 23 3 2 6 10 14 19 23 22 22 25 25 25 25 28 32 26
28 29 28 23 20 20 18 17 17 14 12 11 11 14 15 18 18 16 14 13 12 8 5 3 5 3 1 5 8 11 18 21 21 23 24 27 27 20 3 5 4 6 10 12 18 21 24 25 23 28 26 21 20 33
27 28 22 19 18 17 16 14 13 12 10 10 12 13 15 17 15 13 13 12 10 6 6 7 6 1 2 7 9 11 13 17 21 18 22 23 30 21 2 8 7 6 6 7 10 19 24 24 20 22 24 21 13 20
20 16 15 15 16 15 13 13 12 11 11 10 9 12 15 15 14 13 12 12 9 6 8 8 7 2 2 4 6 8 11 16 19 19 17 21 29 32 12 9 8 6 8 12 19 28 27 21 18 17 15 11 26 32
20 17 16 15 13 12 12 13 13 13 12 10 10 13 16 17 15 14 11 11 7 6 10 9 9 4 2 1 3 5 11 13 16 15 15 17 24 27 11 11 10 12 9 9 10 8 14 18 17 20 19 17 21 37
18 18 15 12 11 12 12 12 13 14 13 12 11 14 16 17 15 13 11 7 5 7 11 11 8 3 1 4 5 10 10 13 12 13 14 16 17 21 18 14 15 13 11 8 15 12 12 15 16 14 11 10 12 13
17 15 12 11 11 12 11 11 14 15 14 12 12 14 16 17 15 10 9 6 6 11 13 13 10 4 6 7 5 3 2 9 9 10 14 14 18 19 20 16 8 7 12 11 15 15 11 12 14 18 18 17 15 15
13 13 11 11 11 12 15 14 14 13 12 9 12 14 15 15 11 11 7 6 8 13 16 14 10 8 8 9 7 4 7 2 3 8 11 14 14 18 17 17 11 11 5 3 10 15 17 15 15 14 17 19 18 18
13 12 12 12 12 13 13 13 13 12 12 10 11 12 14 11 10 8 4 7 8 13 16 15 12 7 9 9 6 5 2 2 2 5 5 7 14 13 12 12 13 12 11 8 6 16 12 13 14 13 14 15 18 20
15 13 12 14 17 19 17 16 14 12 10 10 10 12 12 11 9 5 6 6 9 16 19 16 14 11 9 6 7 6 4 2 2 4 3 2 6 7 7 10 13 12 9 7 7 6 8 13 12 9 10 20 16 20
18 15 14 16 16 14 16 16 15 12 11 10 12 13 11 9 8 6 7 8 14 22 22 22 16 13 10 9 9 6 5 6 4 3 5 6 6 7 7 6 9 8 8 6 4 6 6 5 6 5 5 10 10 11
20 19 16 13 12 12 14 15 15 14 12 11 13 13 10 8 7 10 10 10 17 22 21 22 19 15 11 9 6 2 4 2 3 3 3 5 6 6 7 5 4 6 4 6 7 5 6 3 4 6 8 10 9 11
23 21 20 17 18 15 13 14 14 12 12 12 14 12 10 8 11 14 14 13 16 20 22 22 21 17 11 8 7 1 1 1 3 4 5 6 8 10 11 13 11 8 7 6 3 1 1 3 7 6 8 10 12 13
25 23 20 19 18 16 16 15 14 13 13 15 13 11 9 10 14 16 16 17 18 20 20 21 19 15 12 9 8 6 7 4 4 6 6 9 12 13 12 12 13 12 10 8 6 6 6 9 11 10 9 9 9 9
27 24 23 20 17 16 14 13 13 13 14 13 11 10 9 11 15 15 10 11 15 17 19 18 16 14 9 8 6 6 4 1 3 4 4 5 6 7 7 9 9 8 6 4 4 5 5 5 6 7 8 8 8 8
28 26 24 22 17 14 13 12 12 12 10 8 9 9 10 13 18 12 13 15 16 18 19 17 14 11 8 7 7 6 2 4 3 1 3 4 5 5 4 6 7 6 6 4 3 2 2 2 1 1 0 1 1 1
28 29 26 21 17 16 14 12 11 8 9 9 9 12 14 14 13 8 8 10 12 13 14 12 10 8 8 9 10 10 8 6 1 1 3 6 5 1 1 4 5 5 5 5 6 1 2 1 2 3 4 3 3 5
31 28 25 19 17 16 13 11 10 10 10 13 15 15 15 14 9 9 10 12 13 13 12 11 12 11 11 11 12 8 7 7 5 1 6 6 7 5 4 3 4 5 7 5 3 2 3 3 4 4 4 5 6 7
33 29 24 20 17 16 13 13 12 13 15 15 13 13 13 10 10 10 12 13 13 12 10 9 9 10 12 10 9 8 9 7 3 4 4 4 4 5 6 6 5 3 6 8 8 6 5 4 5 10 8 9 10 11
31 28 25 20 16 15 15 17 18 19 20 15 14 15 16 17 15 14 14 13 12 12 13 15 11 8 8 8 8 7 5 6 6 3 1 5 7 7 6 6 6 3 2 4 6 7 9 10 12 9 8 10 15 16

GFSWCAN_500_spd_174.txt.gz
Wind_Speed
27 27 27 29 30 32 35 37 35 34 34 36 36 37 37 39 40 42 44 45 44 40 41 40 37 35 35 35 34 33 34 36 39 42 42 42 44 44 47 48 47 48 50 52 51 51 53 49 46 48 51 51 47 43
30 30 30 31 33 36 33 32 34 35 35 36 37 39 40 41 41 43 44 44 40 36 37 37 35 33 31 32 32 30 32 35 34 34 35 37 39 39 39 43 45 48 48 49 49 51 53 50 49 46 49 44 41 38
32 32 32 34 32 33 35 35 36 37 37 37 38 42 41 39 39 45 45 41 37 34 33 34 31 30 29 30 30 30 31 30 29 29 29 30 32 33 31 32 37 41 42 46 48 51 53 55 53 51 50 49 46 41
32 31 33 34 35 36 35 37 37 40 39 41 41 40 40 41 44 44 40 36 34 32 31 35 30 29 29 29 29 29 28 27 26 27 26 22 22 26 27 29 32 35 37 40 44 46 51 54 57 54 52 51 51 47
35 36 37 38 38 39 38 39 41 42 41 42 41 40 42 44 42 40 35 34 31 30 29 30 29 29 28 27 24 24 25 25 25 23 23 21 21 26 25 30 29 32 33 39 37 40 48 52 56 59 57 56 53 49
38 38 40 41 41 37 38 38 40 41 44 42 41 41 40 39 38 32 32 30 28 28 28 28 27 27 27 26 26 24 23 24 23 22 19 19 22 28 27 25 23 30 35 38 40 42 44 48 54 58 60 58 55 50
38 38 37 34 33 34 38 40 41 43 41 40 39 36 36 33 30 30 28 26 26 28 28 27 26 25 26 23 21 19 17 15 13 14 14 17 19 23 19 11 18 28 34 38 40 41 43 44 49 56 58 59 56 49
40 39 35 36 38 40 38 37 38 40 38 36 33 33 30 28 27 26 23 23 25 27 27 26 24 23 21 21 21 19 16 13 14 15 19 20 18 23 15 18 21 28 33 36 38 38 39 44 45 49 55 57 56 51
36 38 39 38 34 34 35 35 34 36 38 40 36 29 27 25 23 21 20 22 25 25 25 24 21 20 20 20 16 10 9 11 11 16 20 20 20 22 24 23 19 19 25 31 32 32 32 38 44 48 51 52 54 51
38 35 31 34 35 34 33 32 33 34 34 31 27 26 25 23 20 18 19 22 23 24 23 20 20 19 13 12 7 6 10 14 16 18 23 21 21 22 27 25 21 23 26 28 31 29 30 31 32 39 45 44 45 49
36 35 33 34 35 35 35 33 33 32 31 27 24 23 22 20 16 17 19 21 23 22 21 19 19 13 7 6 6 10 13 16 16 26 17 30 26 26 20 27 26 27 26 26 29 29 25 28 30 34 38 38 36 41
44 37 35 34 33 34 32 30 28 27 23 24 22 21 20 16 15 17 20 20 22 20 18 18 14 9 4 5 8 8 13 16 18 25 27 30 34 28 12 10 16 19 14 18 23 25 25 29 30 30 32 31 29 34
36 35 33 29 29 25 25 25 25 23 22 21 19 18 14 13 16 18 21 20 17 16 15 10 9 4 3 6 7 11 18 19 21 24 24 37 35 15 4 9 3 7 8 14 20 21 27 29 28 24 23 27 29 25
31 31 28 25 25 24 26 24 22 21 21 19 16 12 11 14 16 19 19 16 15 14 10 8 5 2 3 5 10 10 16 23 27 28 30 31 38 16 14 7 6 4 4 8 10 15 22 28 28 23 22 27 28 26
30 27 23 22 25 24 22 20 20 19 17 14 11 10 12 14 16 16 15 14 13 12 10 7 4 1 0 6 9 9 16 23 28 24 24 33 37 9 10 10 8 10 8 7 11 15 16 19 22 25 25 24 24 25
26 27 29 23 22 18 18 19 18 15 14 10 9 9 10 13 14 14 14 14 12 11 9 7 2 1 2 6 5 11 18 20 24 25 24 36 27 14 14 13 9 9 7 6 6 9 12 16 21 23 26 26 24 28
26 25 19 17 16 15 16 17 14 13 12 10 10 9 10 13 15 15 13 13 12 10 8 4 6 3 1 4 5 11 12 12 17 18 21 28 24 19 13 13 11 11 11 11 8 10 12 13 15 20 28 28 22 20
18 18 18 20 17 17 16 14 13 12 12 11 11 10 12 13 16 16 13 11 12 9 7 6 9 3 2 3 5 8 7 13 16 18 20 23 25 10 13 12 17 18 14 4 9 14 15 13 14 22 30 27 21 16
19 19 18 16 16 15 13 12 11 11 12 12 12 12 13 14 16 15 12 11 9 8 6 11 10 4 3 2 5 7 7 9 14 15 16 19 22 18 14 16 14 13 12 13 22 15 19 19 16 15 13 15 26 29
18 18 17 15 14 13 11 10 10 11 12 13 13 13 12 15 15 14 10 11 9 8 11 15 9 5 7 6 5 4 6 8 12 13 15 18 19 15 18 12 7 7 7 8 12 14 15 14 13 12 17 17 30 28
18 16 14 14 13 10 8 9 14 14 13 10 12 12 12 14 15 11 10 8 8 9 11 13 10 8 7 6 4 3 5 3 6 9 13 15 17 19 18 16 13 7 7 5 9 13 12 10 9 9 10 11 12 23
16 14 14 14 12 11 10 11 11 12 12 10 11 11 11 12 12 10 9 7 8 10 13 13 10 6 9 10 6 1 1 1 5 7 8 10 13 15 16 12 13 12 11 8 6 9 11 8 8 9 8 8 8 10
16 15 14 12 11 10 13 18 16 14 13 11 10 10 11 11 10 9 7 9 9 10 16 17 12 8 9 6 5 3 4 4 4 4 4 5 7 10 10 13 15 15 8 10 10 9 8 10 11 9 12 13 15 17
18 16 14 10 9 11 14 13 12 13 12 11 11 10 11 12 10 9 9 9 9 14 20 20 15 13 11 8 7 6 5 3 5 5 6 6 5 4 4 5 7 9 8 6 4 7 6 9 10 9 10 13 19 16
19 18 15 12 11 12 10 10 12 12 12 11 11 11 11 12 10 9 10 8 8 17 22 21 19 16 12 10 6 1 4 6 5 6 7 7 7 6 5 4 3 3 4 4 1 2 3 7 8 8 9 8 12 13
20 18 15 12 14 14 12 12 11 12 11 11 11 11 14 12 11 11 11 10 12 20 23 23 19 17 14 10 7 2 4 5 5 3 5 7 8 10 10 10 8 6 6 6 4 3 5 4 6 10 14 15 14 12
21 17 15 15 15 14 13 14 13 13 13 12 12 13 14 12 10 11 11 12 12 19 21 22 21 18 11 7 6 5 6 6 1 2 5 6 6 8 9 11 11 8 5 5 6 7 7 7 10 11 9 10 10 10
21 20 19 15 16 15 13 14 14 15 12 12 13 14 12 10 10 12 12 12 12 16 19 20 20 17 12 8 6 8 9 5 2 2 4 6 8 9 7 11 10 10 9 4 2 4 6 7 8 9 9 9 9 11
25 21 18 17 17 13 13 13 13 11 11 12 13 11 9 9 11 12 9 9 13 15 17 17 18 16 12 10 8 7 4 4 3 2 1 3 8 7 4 9 10 10 11 11 7 5 5 5 4 2 3 4 5 6
27 21 17 17 16 16 16 12 12 11 12 10 8 8 10 12 14 13 11 12 14 16 18 17 15 13 12 12 9 9 7 5 2 1 3 5 4 4 5 6 6 7 7 6 6 4 1 1 1 2 3 3 4 6
26 21 20 21 19 17 14 14 12 11 9 8 9 12 12 12 12 10 10 11 12 12 14 14 13 13 13 11 8 6 6 6 3 2 5 6 6 5 4 5 6 5 4 5 6 6 5 4 4 4 5 6 7 7
24 24 24 23 21 15 14 13 10 9 8 11 12 12 12 9 9 10 10 11 11 11 11 11 11 11 10 8 10 10 8 7 4 4 3 2 4 6 7 7 7 8 8 5 4 7 8 7 7 9 11 7 6 6
30 29 23 21 18 15 12 9 9 13 12 13 12 13 11 12 14 14 14 13 12 9 8 9 10 10 10 10 9 8 7 6 5 3 3 7 9 8 7 6 6 7 4 3 5 7 10 11 13 13 12 13 13 14